www.pogodaiklimat.ru

Погода и климат >> Архив погоды >> Монголия >> Баруунтуруун


ПОГОДА в Баруунтурууне

  • Прогноз погоды в Баруунтурууне
  • Монитор погоды в Баруунтурууне

АРХИВ ПОГОДЫ в Баруунтурууне

Время (UTC), дата Ветер
(напр.,м/с)
 
Видим.   Явления Облачность Т
(С)
Тd
(С)
f
(%)
Тe
(С)
Тes
(С)
Комфортность P
(гПа)
Po
(гПа)
Тmin
(С)
Tmax
(С)
R
(мм)
R24
(мм)
S
(см)
21 16.09 штиль 0 50 км ясно +4.9 +0.1 71 +4 +4 1025.8 881.9
00 17.09 штиль 0 50 км 3/0
[Ci]
+4.8 +0.2 72 +4 +4 1026.0 882.0 +3.7
03 17.09 СВ 2 50 км 6/0
[Cs]
+13.8 +2.1 45 +14 +18 1021.4 882.2
06 17.09 СЗ 3 50 км 9/9 1000 м
[Sc]
+14.7 +3.8 48 +14 +15 1020.4 881.8
09 17.09 штиль 0 50 км 9/9 1000 м
[Sc]
+15.3 +4.1 47 +15 +16 1018.6 880.5
12 17.09 Ю 1 50 км 9/9 1000 м
[Sc]
+13.0 +3.9 54 +13 +13 1019.8 880.5 +16.5
15 17.09 штиль 0 50 км 9/9 1000 м
[Sc]
+9.1 +2.7 64 +9 +9 1023.3 881.7
18 17.09 ЮВ 2 50 км 6/6 1000 м
[Sc]
+7.0 +2.1 71 +5 +5 1025.0 882.2
21 17.09 штиль 0 50 км 9/0
[As trans]
+5.4 +3.4 87 +4 +4 1026.5 882.7
00 18.09 Ю 1 50 км 8/0
[Ac cast Cs]
+6.4 +3.4 81 +5 +5 1027.2 883.8 +5.0
03 18.09 ЮЗ 2 50 км 6/3 1000 м
[Cu med, cong Cc]
+12.7 +4.2 56 +12 +16 1024.6 884.5
06 18.09 С 3 50 км 4/4 1000 м
[Cu med, cong]
+16.5 +1.8 37 +16 +21 1021.7 883.7
09 18.09 З 2 50 км 3/3 1000 м
[Cu med, cong]
+18.0 -0.3 29 +19 +21 1020.0 882.9
12 18.09 штиль 0 50 км 3/1 1000 м
[Sc Cs]
+14.5 +3.6 48 +14 +14 1022.5 883.5 +18.2
15 18.09 штиль 0 50 км ясно +8.8 +3.6 70 +8 +8 1026.6 884.4
18 18.09 штиль 0 50 км ясно +6.9 +3.0 76 +6 +6 1027.7 884.5
21 18.09 штиль 0 50 км ясно +6.3 +2.0 74 +6 +6 1027.9 884.4
00 19.09 штиль 0 50 км ясно +6.5 +1.4 70 +6 +6 1028.4 884.9 +5.8
03 19.09 Ю 1 50 км 3/0
[Ci]
+15.5 +0.9 37 +16 +22 1023.1 884.5
06 19.09 СВ 2 50 км 6/1 1000 м
[Cu hum Ci]
+18.9 +0.5 29 +20 +27 1019.9 883.2
09 19.09 З 3 50 км 4/1 1000 м
[Cu hum Ci]
+20.4 -2.0 22 +21 +23 комфорт 1018.0 882.2
12 19.09 ЮЗ 2 50 км 3/0
[Ci]
+15.6 +1.0 37 +16 +16 1020.9 882.6 +20.8
15 19.09 штиль 0 50 км ясно +10.9 +2.2 55 +11 +11 1024.2 883.3
18 19.09 Ю 2 50 км ясно +9.7 +1.5 57 +8 +8 1023.9 882.4
21 19.09 ЮЗ 3 50 км 8/0
[Cs]
+11.6 +0.1 45 +10 +10 1021.9 881.7
00 20.09 штиль 0 50 км 8/0
[Cs]
+8.2 +0.9 60 +8 +8 1024.1 882.0 +6.4
03 20.09 ЮЗ 1 50 км 4/0
[Ci fib]
+17.0 +1.8 36 +18 +24 1019.1 881.7
06 20.09 Ю 2 50 км 4/0
[Ci ing]
+22.5 -1.6 20 +21 +30 комфорт 1014.7 880.2
09 20.09 З 4 50 км 5/0
[Ac trans Ci sp]
+23.2 -3.2 17 +22 +24 комфорт 1013.2 879.2
12 20.09 ЮЗ 2 50 км ясно +18.2 -0.1 29 +19 +19 1015.6 879.2 +23.4
15 20.09 Ю 4 50 км ясно +11.7 +0.2 45 +10 +10 1020.1 880.2
18 20.09 штиль 0 50 км ясно +9.3 +0.5 54 +9 +9 1021.7 880.4
21 20.09 штиль 0 50 км ясно +7.8 -0.7 55 +7 +7 1022.9 880.8
00 21.09 ЮВ 1 50 км 3/0
[Ac trans]
+8.9 -1.8 47 +9 +9 1023.3 881.6 +5.7
03 21.09 СЗ 1 50 км 3/0
[Ac trans]
+16.4 +0.9 35 +17 +22 1019.7 881.9
06 21.09 С 1 50 км 3/0
[Ci]
+20.8 +0.1 25 +22 +32 комфорт 1016.4 881.0
09 21.09 СЗ 1 50 км 3/0
[Ci]
+22.2 -0.5 22 +21 +25 комфорт 1015.3 880.6
12 21.09 штиль 0 50 км 3/0
[Cs]
+16.4 +5.1 47 +16 +16 1018.6 881.0 +22.5
15 21.09 Ю 2 50 км ясно +11.8 +3.6 57 +11 +11 1022.1 881.9
18 21.09 штиль 0 50 км 3/0
[Ci]
+10.6 +1.7 54 +10 +10 1022.6 881.8
21 21.09 З 1 50 км ясно +8.3 +0.5 58 +8 +8 1023.9 881.9
00 22.09 штиль 0 50 км 4/0
[Cs]
+8.2 +0.2 57 +8 +8 1024.9 882.7 +7.5
03 22.09 З 1 50 км 3/0
[Ci]
+18.6 +1.2 31 +20 +25 1020.3 883.4
06 22.09 С 1 50 км 3/3 1000 м
[Cu hum]
+21.4 +2.2 28 +21 +28 комфорт 1018.3 882.9
09 22.09 С 1 50 км 1/1 1000 м
[Cu hum]
+23.4 -2.3 18 +22 +25 комфорт 1015.8 881.6
12 22.09 штиль 0 50 км ясно +16.6 +2.6 39 +17 +17 1019.2 881.6 +23.6
15 22.09 штиль 0 50 км ясно +11.5 +2.0 52 +11 +11 1022.1 881.8
18 22.09 штиль 0 50 км ясно +10.7 +0.4 49 +11 +11 1021.3 880.7
21 22.09 ЮЗ 4 50 км ясно +13.8 -4.4 28 +13 +13 1018.6 879.8
00 23.09 ЮЗ 5 50 км ясно +12.4 -3.8 32 +11 +11 1019.8 880.2 +10.0
03 23.09 ЮЗ 6 50 км ясно +22.0 -3.4 18 +21 +23 комфорт 1015.2 880.5
06 23.09 ЮЗ 6 50 км ясно +25.3 -4.1 14 +23 +26 комфорт 1012.5 879.5
09 23.09 ЮЗ 7
{14}
50 км ясно +26.0 -6.7 11 +23 +24 комфорт 1010.8 878.3
12 23.09 Ю 4 50 км 6/6 1000 м
[Sc]
+17.8 -2.0 26 +18 +18 1014.8 878.3 +26.3
15 23.09 Ю 3 50 км 4/4 1000 м
[Sc]
+19.1 -5.8 18 +19 +19 1014.6 878.7
18 23.09 Ю 5 50 км 9/9 1000 м
[Sc]
+18.9 -3.3 22 +19 +19 1014.8 878.8

 

Местоположение метеостанции Баруунтуруун (Монголия): широта 49.65 долгота 94.40 высота над уровнем моря 1232 м.

В архиве по умолчанию представлена погода в Баруунтурууне за последнюю неделю. Архивные данные за месяц целиком и за предыдущие месяцы, начиная с января 2011 года, Вы можете получить, выбрав интересующий диапазон дат из раскрывающегося списка и нажав кнопку "Ввод!".


*Определитесь, кто Вы:
робот инопланетянин человек

Внимание! Время в таблицах - всемирное. Для получения местного времени необходимо прибавить поправку, которая равна 8 ч.

Смотрите также архив погоды в соседних городах и на ближайших метеорологических станциях:

Погода в Эрзине (Тува, Россия) (86 км)
Погода в Тэсе (Монголия) (99 км)
Погода в Ургамале (Монголия) (126 км)
Погода в Завхане (Монголия) (132 км)
Погода в Цэцэн-Ууле (Монголия) (152 км)
Погода в Сосновке (Тува, Россия) (167 км)
Погода в Улаангоме (Монголия) (168 км)
Погода в Хову-Аксы (Тува, Россия) (168 км)
Погода в Хандагайты (Тува, Россия) (204 км)
Погода в Умнегове (Монголия) (206 км)

Пояснения к столбцам:

Ветер - указаны скорость ветра в м/с - средняя за 10 мин, порывы в срок и между сроками (в фигурных скобках) и направление, откуда дует ветер: С - северный, СВ - северо-восточный, В - восточный, ЮВ - юго-восточный, Ю - южный, ЮЗ - юго-западный, З - западный, СЗ - северо-западный.
Видимость - горизонтальная дальность видимости в метрах или километрах. При видимости от 1 до 10 км при отсутствии осадков обычно наблюдается дымка, при ухудшении видимости до 1 км и менее - туман. В сухую погоду видимость может ухудшаться дымом, пылью или мглою.
Явления - указаны атмосферные явления, наблюдавшиеся в срок или в последний час перед сроком; фигурными скобками обозначены явления, наблюдавшиеся между сроками (за 1-3 часа до срока); квадратными скобками обозначены град или гололедные отложения с указанием их диаметра в мм.
Облачность - указаны через наклонную черту общая и нижняя облачность в баллах и высота нижней границы облаков в метрах; квадратными скобками обозначены формы облаков: Ci - перистые, Cs - перисто-слоистые, Cc - перисто-кучевые, Ac - высококучевые, As - высокослоистые, Sc - слоисто-кучевые, Ns - слоисто-дождевые, Cu - кучевые, Cb - кучево-дождевые. Подробнее классификацию облаков см. в Атласе облаков (PDF).
T - Температура воздуха - температура, измеренная на высоте 2 м над землей.
Td - Температура точки росы - температура, при понижении до которой содержащийся в воздухе водяной пар достигнет насыщения.
f - Относительная влажность воздуха - влажноcть воздуха, измеренная на высоте 2 м над землей.
Te - Эффективная температура - температура, которую ощущает одетый по сезону человек в тени. Характеристика душности погоды. При расчете учитывается влияние влажности воздуха и скорости ветра на теплоощущения человека.
Tes - Эффективная температура на солнце - температура, которую ощущает человек, с поправкой на солнечный нагрев. Характеристика знойности погоды. Зависит от высоты солнца над горизонтом, облачности и скорости ветра. Ночью, в пасмурную погоду, а также при ветре 12 м/с и более поправка равна нулю.
P - Атмосферное давление - приведенное к уровню моря атмосферное давление.
Po - Атмосферное давление - измеренное на уровне метеостанции атмосферное давление.
Tmin - Минимальная температура - минимум температуры воздуха на высоте 2 м над землей.
Tmax - Максимальная температура - максимум температуры воздуха на высоте 2 м над землей.
R - Количество осадков - Количество выпавших осадков за период времени, мм. При наведении курсора мыши на число - период времени, за который выпало указанное количество осадков.
R24 - Количество осадков - Количество выпавших осадков за 24 часа, мм.
S - Снежный покров - Высота снежного покрова, см. При наведении курсора мыши на число - состояние снежного покрова и степень покрытия местности в баллах.